Theta_e
323 320 319 316 317 316 314 311 308 303 305 309 309 313 311 310 314 306 307 311 314 314 316 314 312 313 311 309 309 309 309 309 309 310 311 311 313 314
320 319 316 315 315 315 313 314 311 308 303 308 306 309 306 311 309 308 306 313 314 313 313 313 311 309 310 310 310 309 309 308 308 307 308 309 310 311
318 315 314 316 313 312 312 311 309 306 300 301 304 303 306 307 305 304 307 304 305 312 311 311 307 308 308 309 310 311 309 308 307 307 307 308 309 309
314 313 310 311 309 306 305 305 303 302 300 297 298 301 303 304 300 302 302 303 303 308 309 309 306 306 307 308 308 306 306 305 304 304 304 305 306 307
312 309 307 304 302 301 301 300 300 300 299 297 297 299 300 300 298 298 298 299 303 306 307 307 306 306 307 309 306 304 303 302 302 302 302 303 303 304
309 306 303 302 299 299 298 298 299 298 297 295 295 296 296 297 296 294 294 297 298 302 305 304 304 305 304 305 307 303 302 302 301 302 301 301 301 302
310 304 300 298 299 300 299 298 299 297 295 293 293 293 294 293 292 294 293 294 296 300 298 298 298 298 297 301 301 300 301 302 301 301 301 300 300 300
306 303 300 295 295 299 303 303 303 296 295 293 292 292 292 293 294 293 292 291 291 299 296 295 297 295 296 297 299 300 300 300 300 300 300 300 300 299
302 300 296 293 291 293 297 303 303 300 298 295 294 293 294 295 295 293 292 293 293 297 296 293 296 294 295 295 298 299 299 297 299 298 299 298 298 298
296 296 293 291 290 291 296 296 297 297 297 298 297 298 298 296 295 294 294 295 296 297 295 290 295 293 294 294 298 299 297 297 297 298 298 298 298 297
292 291 293 291 290 291 294 293 294 294 298 300 301 299 297 296 297 296 293 292 291 293 294 292 294 292 293 292 294 296 297 296 298 297 298 298 298 297
294 291 290 289 289 289 291 292 290 291 293 298 298 298 298 298 299 297 295 292 293 291 293 289 291 291 288 291 292 293 294 296 297 297 297 299 297 297
295 292 293 290 289 290 290 293 290 291 297 295 295 295 294 294 295 296 296 296 292 292 294 291 291 291 288 287 290 292 293 294 295 297 297 297 297 297
293 295 295 291 290 290 290 290 290 295 295 294 293 292 292 292 294 295 296 299 297 297 294 293 291 291 288 286 286 291 293 294 295 295 296 298 298 298
296 294 293 292 292 294 293 293 294 294 293 292 292 292 293 293 295 294 296 296 296 297 298 294 294 292 291 288 286 288 289 292 294 294 295 296 298 297
297 297 296 295 296 296 296 296 294 294 293 292 292 293 293 292 293 294 293 293 293 293 296 298 295 294 290 289 289 288 290 289 292 294 294 296 297 296
291 299 297 296 294 294 294 295 294 293 292 292 292 291 290 291 291 293 293 292 291 291 291 293 294 295 294 290 288 289 289 290 291 293 293 294 295 294
296 295 293 293 292 292 292 292 292 292 292 292 291 291 289 290 290 292 292 290 290 290 291 291 292 291 291 291 292 288 289 288 292 292 293 293 292 294
295 293 292 292 292 292 292 291 291 291 292 291 291 290 290 290 291 290 290 289 290 290 291 290 291 289 286 283 288 293 287 289 290 288 291 294 290 292
294 292 292 292 292 291 291 291 291 290 290 290 290 289 290 290 290 289 289 288 289 290 289 289 290 289 286 284 284 288 291 291 289 288 289 293 293 294
293 292 292 292 292 292 291 291 291 289 288 289 289 288 289 290 289 290 288 288 288 289 287 287 290 288 292 291 287 287 289 293 294 291 291 290 293 290
293 292 292 292 292 291 291 290 289 287 287 287 287 287 288 290 289 289 288 289 288 289 288 289 291 292 290 287 286 286 288 291 295 296 296 294 289 286
293 293 292 291 291 291 290 289 287 286 285 286 286 286 288 289 290 289 288 289 288 288 288 288 289 289 288 287 287 287 287 288 290 293 293 295 296 296
Wind_Speed
6 6 5 6 6 5 4 3 4 7 8 6 6 8 7 6 7 7 7 17 23 20 14 10 12 17 18 19 22 22 21 20 19 19 20 19 21 24
5 6 5 4 6 5 5 4 5 5 6 7 9 7 9 7 9 8 10 18 16 20 18 18 15 21 20 20 20 21 19 16 16 17 17 18 19 19
6 6 7 7 6 6 7 6 6 6 7 8 6 9 7 6 8 9 11 12 10 17 24 16 23 24 24 24 22 20 18 15 16 17 19 19 17 18
8 8 10 8 10 10 8 8 6 6 6 9 8 7 6 8 12 11 11 11 11 18 21 18 26 26 23 24 14 16 12 11 12 14 16 16 17 18
10 10 10 9 9 7 7 6 5 7 6 7 8 8 6 9 11 11 11 12 8 23 19 20 24 24 23 15 9 16 10 10 11 13 15 16 16 15
10 9 8 7 6 6 6 5 5 6 7 7 8 8 8 11 8 11 12 10 11 10 9 15 19 22 25 25 20 28 21 22 14 13 17 16 14 15
8 10 7 11 14 11 5 6 6 5 6 8 8 9 9 11 11 10 11 11 12 10 6 10 10 12 13 17 20 26 21 18 12 19 20 16 13 13
7 8 7 15 13 16 15 18 10 3 5 4 6 8 9 9 9 9 10 12 14 8 7 11 8 12 13 13 23 22 18 19 21 18 19 19 17 16
9 9 10 9 12 10 15 12 10 4 6 5 7 8 9 10 8 10 11 11 11 11 7 9 9 10 14 15 23 21 18 24 20 22 18 19 19 17
9 9 8 8 9 11 9 9 9 7 8 8 6 8 6 8 7 7 10 11 10 9 4 8 11 11 13 11 21 19 26 20 22 20 23 20 18 15
8 8 7 5 10 15 7 8 7 7 10 18 11 10 11 12 10 7 11 12 12 12 4 6 10 14 10 7 8 25 21 22 21 23 21 22 13 17
7 6 7 4 10 10 7 6 8 10 11 8 8 7 10 10 15 10 11 12 11 14 4 8 8 13 11 3 13 11 11 21 22 20 20 17 18 8
6 5 2 3 9 11 9 5 6 10 9 8 8 8 9 11 10 11 13 9 12 12 5 5 6 16 6 12 8 11 12 12 12 11 16 17 16 11
5 1 2 4 8 10 8 10 13 9 7 8 8 9 9 11 11 12 14 7 12 10 4 3 4 15 10 9 10 12 11 11 10 11 11 13 12 10
2 0 6 10 12 6 9 9 8 8 8 9 9 10 10 11 11 13 12 11 13 12 4 1 6 15 11 9 10 12 15 13 9 12 12 11 8 9
3 5 4 4 5 4 7 7 8 8 8 9 9 9 10 12 11 11 11 12 10 11 14 1 10 13 12 10 10 10 11 9 14 12 12 9 7 8
7 3 4 5 6 6 6 7 7 9 9 9 10 11 12 11 11 11 11 11 11 12 14 10 12 11 12 11 7 8 12 12 12 13 12 7 8 10
2 4 5 6 7 7 7 8 8 10 9 9 9 10 11 11 13 11 11 12 13 12 12 14 12 12 13 2 4 9 8 12 13 12 10 6 9 11
5 5 6 6 7 7 7 8 8 9 9 9 9 11 11 10 14 12 13 14 13 13 12 14 10 12 16 14 6 14 12 11 13 11 10 7 8 10
6 6 6 6 6 7 7 7 7 8 9 9 9 10 10 11 12 12 14 15 14 14 13 15 11 11 13 12 8 10 19 9 8 10 9 3 4 12
6 6 5 6 6 7 7 8 8 9 9 9 9 10 10 11 12 12 14 17 17 13 15 15 15 10 10 8 9 9 10 19 14 13 11 4 3 6
6 6 6 6 7 8 8 8 9 9 10 9 9 9 10 11 12 12 14 13 15 13 12 12 14 12 10 11 12 12 9 10 6 19 23 18 6 5
5 5 7 7 7 8 8 9 9 9 9 10 10 10 10 11 11 11 12 12 13 14 15 15 12 13 10 12 12 9 13 10 8 7 10 21 20 19
Wind_Direction
85 48 19 22 1 6 17 358 315 330 322 341 345 350 355 335 311 343 340 317 312 305 326 355 306 326 338 328 316 314 310 311 317 312 304 302 300 294
63 64 40 23 14 18 1 344 3 340 322 337 342 338 327 317 340 6 319 311 322 346 359 349 16 344 328 318 313 310 312 314 316 320 320 309 305 302
57 58 34 45 10 17 352 13 357 0 332 321 314 320 311 335 5 333 330 349 335 331 356 10 354 339 331 321 318 318 322 316 314 312 312 310 307 309
59 54 45 22 24 18 354 9 355 348 329 315 321 325 329 24 350 352 352 332 326 344 336 354 341 328 326 325 12 13 4 350 334 325 314 317 311 303
60 54 48 35 20 8 341 8 344 336 320 329 329 325 349 13 343 342 336 335 341 341 344 347 339 329 327 345 27 12 352 333 312 320 327 318 317 310
81 66 49 43 20 356 349 355 345 333 340 350 335 340 347 354 347 341 338 333 331 320 349 347 339 339 337 328 338 347 344 330 312 313 320 315 307 306
111 105 71 39 17 354 311 315 319 344 353 351 340 343 338 336 347 336 329 326 328 313 1 348 338 336 330 322 336 328 330 330 321 317 318 305 304 299
52 99 113 48 10 345 342 324 276 319 354 341 333 326 324 329 328 329 328 333 332 330 352 338 334 335 327 324 325 321 325 335 318 321 319 309 304 302
51 40 36 27 8 342 329 355 9 169 253 280 309 309 317 311 322 320 325 322 325 315 351 326 332 333 334 323 321 322 339 333 329 320 322 319 305 295
48 58 53 22 359 350 352 1 2 9 329 306 287 286 294 305 312 301 307 320 317 322 27 315 330 338 332 315 306 341 328 324 321 324 322 316 312 304
82 54 49 25 348 345 8 3 353 338 326 315 315 318 310 321 320 330 338 336 332 339 44 328 346 331 334 307 321 326 325 315 328 323 319 316 312 323
119 113 79 357 323 328 336 357 347 336 327 326 351 1 351 8 348 349 331 333 338 332 36 353 354 348 326 300 327 322 318 330 321 316 308 305 310 306
78 80 47 286 302 310 322 342 332 319 334 358 353 359 355 3 343 349 328 334 338 326 41 21 326 347 327 316 317 313 330 323 324 318 322 318 314 312
70 74 301 285 271 284 304 327 329 347 350 1 357 360 1 357 341 341 321 349 335 317 84 29 297 354 326 314 324 318 326 325 321 330 322 324 316 307
79 258 287 296 298 271 256 299 355 9 0 6 2 1 6 348 333 333 330 1 330 331 138 150 1 351 334 315 310 318 323 331 332 330 334 332 338 342
351 259 269 297 293 327 26 30 33 8 1 9 0 2 1 344 347 336 341 352 338 340 348 56 23 347 334 324 314 310 325 327 330 332 331 324 2 351
318 35 29 28 29 24 27 22 35 12 5 11 4 6 358 340 348 338 348 349 344 342 342 4 356 345 338 315 309 327 327 333 336 335 335 341 10 0
75 58 41 34 29 24 22 12 30 19 7 13 6 8 354 341 343 343 351 349 344 348 343 352 354 343 350 305 17 333 341 336 340 343 345 354 6 11
55 53 51 36 25 20 19 20 25 21 3 14 8 4 351 342 343 347 350 343 348 350 354 349 6 355 354 354 312 340 345 337 340 348 346 10 18 3
62 51 41 41 29 23 16 25 22 22 11 9 7 360 348 345 344 349 349 339 348 347 352 350 0 11 358 340 322 318 339 344 351 353 355 318 19 1
60 53 43 33 36 27 20 22 24 26 10 2 3 356 344 343 343 349 344 334 351 349 354 349 347 14 344 328 336 339 341 353 8 11 358 1 358 2
37 56 45 36 37 30 20 21 24 21 6 358 360 348 338 335 341 354 343 346 350 355 348 338 341 1 358 353 345 338 342 346 359 26 22 33 14 7
31 34 47 41 28 35 21 27 25 16 1 353 355 339 332 331 342 357 338 350 346 354 348 348 345 360 357 353 347 346 348 350 345 8 21 14 25 45